map of BYK home
BYK - Airport
Location
City:  Bouaké, Vallée du Bandama, Côte d'Ivoire (Ivory Coast)
Name:Bouaké Airport
ICAO:DIBK
IATA:BYK

Details
Type:Airport (Aerodrome, Airfield)
Use:Public/Civil, Military, International (customs port of entry)
Latitude:7°44'20"N (7.738800)
Longitude:5°04'25"W (-5.073666)
Datum:WGS 1984
Elevation:1230 ft (375 m)
Variation:4.24°W (WMM2015 magnetic declination)
0.10° annual change
Runways:1
Longest:10827 × 148 ft (3300 × 45 m), paved

Time
Time Zone:UTC+0
Local Time:

Weather
METAR:DIBK 221700Z 36006KT 9000 NSC 35/03 Q1011 NOSIG
TAF:DIBK 221716Z 2218/2318 20006KT 9000 NSC PROB30 2305/2308 4000 BR FEW010 PROB40 2310/2316 4000 HZ

Related Locations
Nearby:
Farthest:FUN: 12152 mi / 19557 km
Funafuti Atoll [Intl], TV

Find:

   beyond  
but within

Other Information
Maps:
NOTAMs:
Links:
Sources:

  
  • flag of Côte d'Ivoire (Ivory Coast)
  

Sectional Chart

Flight Planning
at skyvector.com

Satellite Image

Google Maps Satellite view

 

Copyright © 2004-2019 Karl L. Swartz. All rights reserved.
The Great Circle Mapper name and logo are trademarks of the Great Circle Mapper.
All other trademarks mentioned herein belong to their respective owners.
Please see credits for attibutions and further copyright information.

  Follow gcmap on Facebook Follow gcmap on Twitter Follow gcmap on Google+ GCmap on LinkedIn

hCard Microformat

Geo Microformat